Time,TemperatureF,DewpointF,PressureIn,WindDirection,WindDirectionDegrees,WindSpeedMPH,WindSpeedGustMPH,Humidity,HourlyPrecipIn,Conditions,Clouds,dailyrainin,SoftwareType,DateUTC
2013-01-31 00:01:00,32.9,27.1,30.09,North,5,0.0,10.0,79,0.00,,---,0.00,VWS V13.01,2013-01-31 06:01:00,
2013-01-31 00:06:00,32.9,27.1,30.09,NNW,332,0.0,0.0,79,0.00,,---,0.00,VWS V13.01,2013-01-31 06:06:00,
2013-01-31 00:12:00,32.8,27.0,30.10,West,267,1.0,5.0,79,0.00,,---,0.00,VWS V13.01,2013-01-31 06:12:00,
2013-01-31 00:17:00,32.8,27.0,30.10,NNW,340,0.0,5.0,79,0.00,,---,0.00,VWS V13.01,2013-01-31 06:17:00,
2013-01-31 00:22:00,32.7,27.2,30.10,NNW,336,3.0,5.0,80,0.00,,---,0.00,VWS V13.01,2013-01-31 06:22:00,
2013-01-31 00:27:00,32.6,27.1,30.10,NNW,336,0.0,5.0,80,0.00,,---,0.00,VWS V13.01,2013-01-31 06:27:00,
2013-01-31 00:32:00,32.5,27.0,30.09,NNW,335,0.0,5.0,80,0.00,,---,0.00,VWS V13.01,2013-01-31 06:32:00,
2013-01-31 00:37:00,32.5,27.0,30.09,NNW,331,0.0,4.0,80,0.00,,---,0.00,VWS V13.01,2013-01-31 06:37:00,
2013-01-31 00:42:00,32.3,26.8,30.10,NNW,330,0.0,4.0,80,0.00,,---,0.00,VWS V13.01,2013-01-31 06:42:00,
2013-01-31 00:47:00,32.2,26.7,30.10,NNW,331,0.0,4.0,80,0.00,,---,0.00,VWS V13.01,2013-01-31 06:47:00,
2013-01-31 00:52:00,32.1,26.6,30.09,NW,318,0.0,5.0,80,0.00,,---,0.00,VWS V13.01,2013-01-31 06:52:00,
2013-01-31 00:57:00,32.0,26.5,30.09,NW,318,0.0,5.0,80,0.00,,---,0.00,VWS V13.01,2013-01-31 06:57:00,
2013-01-31 01:02:00,31.9,26.7,30.09,NW,306,0.0,5.0,81,0.00,,---,0.00,VWS V13.01,2013-01-31 07:02:00,
2013-01-31 01:07:00,31.9,26.7,30.09,West,281,0.0,4.0,81,0.00,,---,0.00,VWS V13.01,2013-01-31 07:07:00,
2013-01-31 01:12:00,31.8,26.6,30.09,NNW,337,5.0,5.0,81,0.00,,---,0.00,VWS V13.01,2013-01-31 07:12:00,
2013-01-31 01:17:00,31.8,26.6,30.09,NW,321,0.0,5.0,81,0.00,,---,0.00,VWS V13.01,2013-01-31 07:17:00,
2013-01-31 01:22:00,31.8,26.6,30.09,WNW,292,0.0,5.0,81,0.00,,---,0.00,VWS V13.01,2013-01-31 07:22:00,
2013-01-31 01:27:00,31.7,26.5,30.09,NW,319,0.0,6.0,81,0.00,,---,0.00,VWS V13.01,2013-01-31 07:27:00,
2013-01-31 01:32:00,31.7,26.5,30.10,NW,309,0.0,6.0,81,0.00,,---,0.00,VWS V13.01,2013-01-31 07:32:00,
2013-01-31 01:37:00,31.7,26.5,30.10,WNW,303,0.0,3.0,81,0.00,,---,0.00,VWS V13.01,2013-01-31 07:37:00,
2013-01-31 01:42:00,31.7,26.5,30.10,NNW,336,0.0,3.0,81,0.00,,---,0.00,VWS V13.01,2013-01-31 07:42:00,
2013-01-31 01:47:00,31.7,26.5,30.10,NW,321,0.0,5.0,81,0.00,,---,0.00,VWS V13.01,2013-01-31 07:47:00,
2013-01-31 01:52:00,31.7,26.5,30.10,WNW,299,3.0,5.0,81,0.00,,---,0.00,VWS V13.01,2013-01-31 07:52:00,
2013-01-31 01:57:00,31.7,26.5,30.10,NW,310,0.0,5.0,81,0.00,,---,0.00,VWS V13.01,2013-01-31 07:57:00,
2013-01-31 02:02:00,31.6,26.5,30.10,NW,314,0.0,5.0,81,0.00,,---,0.00,VWS V13.01,2013-01-31 08:02:00,
2013-01-31 02:07:00,31.6,26.5,30.10,WNW,296,0.0,3.0,81,0.00,,---,0.00,VWS V13.01,2013-01-31 08:07:00,
2013-01-31 02:12:00,31.5,26.4,30.10,NW,321,0.0,4.0,81,0.00,,---,0.00,VWS V13.01,2013-01-31 08:12:00,
2013-01-31 02:17:00,31.5,26.4,30.10,NW,319,0.0,4.0,81,0.00,,---,0.00,VWS V13.01,2013-01-31 08:17:00,
2013-01-31 02:22:00,31.4,26.2,30.10,NW,306,0.0,4.0,81,0.00,,---,0.00,VWS V13.01,2013-01-31 08:22:00,
2013-01-31 02:27:00,31.3,26.2,30.10,NW,307,0.0,4.0,81,0.00,,---,0.00,VWS V13.01,2013-01-31 08:27:00,
2013-01-31 02:32:00,31.2,26.1,30.10,NW,310,0.0,4.0,81,0.00,,---,0.00,VWS V13.01,2013-01-31 08:32:00,
2013-01-31 02:37:00,31.2,26.1,30.10,NW,309,0.0,5.0,81,0.00,,---,0.00,VWS V13.01,2013-01-31 08:37:00,
2013-01-31 02:42:00,31.2,26.4,30.09,NW,321,0.0,5.0,82,0.00,,---,0.00,VWS V13.01,2013-01-31 08:42:00,
2013-01-31 02:48:00,31.1,26.3,30.09,NW,315,0.0,5.0,82,0.00,,---,0.00,VWS V13.01,2013-01-31 08:48:00,
2013-01-31 02:53:00,31.0,26.2,30.09,WNW,290,0.0,5.0,82,0.00,,---,0.00,VWS V13.01,2013-01-31 08:53:00,
2013-01-31 02:58:00,31.0,26.2,30.09,WNW,290,0.0,5.0,82,0.00,,---,0.00,VWS V13.01,2013-01-31 08:58:00,
2013-01-31 03:03:00,30.9,26.1,30.09,WNW,290,0.0,5.0,82,0.00,,---,0.00,VWS V13.01,2013-01-31 09:03:00,
2013-01-31 03:08:00,30.8,26.0,30.09,WNW,289,0.0,0.0,82,0.00,,---,0.00,VWS V13.01,2013-01-31 09:08:00,
2013-01-31 03:13:00,30.8,25.7,30.09,WNW,290,0.0,2.0,81,0.00,,---,0.00,VWS V13.01,2013-01-31 09:13:00,
2013-01-31 03:18:00,30.7,25.6,30.09,WNW,290,0.0,2.0,81,0.00,,---,0.00,VWS V13.01,2013-01-31 09:18:00,
2013-01-31 03:23:00,30.7,25.6,30.08,WNW,290,0.0,2.0,81,0.00,,---,0.00,VWS V13.01,2013-01-31 09:23:00,
2013-01-31 03:28:00,30.6,25.5,30.08,WNW,290,0.0,2.0,81,0.00,,---,0.00,VWS V13.01,2013-01-31 09:28:00,
2013-01-31 03:33:00,30.6,25.5,30.08,WNW,290,0.0,2.0,81,0.00,,---,0.00,VWS V13.01,2013-01-31 09:33:00,
2013-01-31 03:38:00,30.5,25.4,30.08,WNW,290,0.0,0.0,81,0.00,,---,0.00,VWS V13.01,2013-01-31 09:38:00,
2013-01-31 03:43:00,30.4,25.3,30.08,WNW,290,0.0,0.0,81,0.00,,---,0.00,VWS V13.01,2013-01-31 09:43:00,
2013-01-31 03:49:00,30.3,25.5,30.08,WNW,292,0.0,0.0,82,0.00,,---,0.00,VWS V13.01,2013-01-31 09:49:00,
2013-01-31 03:54:00,30.2,25.4,30.09,WNW,291,0.0,2.0,82,0.00,,---,0.00,VWS V13.01,2013-01-31 09:54:00,
2013-01-31 03:59:00,30.1,25.3,30.09,WNW,291,0.0,2.0,82,0.00,,---,0.00,VWS V13.01,2013-01-31 09:59:00,
2013-01-31 04:04:00,30.1,25.3,30.09,WNW,292,0.0,2.0,82,0.00,,---,0.00,VWS V13.01,2013-01-31 10:04:00,
2013-01-31 04:09:00,30.0,25.2,30.09,WNW,290,0.0,0.0,82,0.00,,---,0.00,VWS V13.01,2013-01-31 10:09:00,
2013-01-31 04:14:00,29.9,25.1,30.09,WNW,290,0.0,0.0,82,0.00,,---,0.00,VWS V13.01,2013-01-31 10:14:00,
2013-01-31 04:19:00,29.9,25.1,30.09,WNW,291,0.0,0.0,82,0.00,,---,0.00,VWS V13.01,2013-01-31 10:19:00,
2013-01-31 04:24:00,29.9,25.4,30.09,WNW,290,0.0,0.0,83,0.00,,---,0.00,VWS V13.01,2013-01-31 10:24:00,
2013-01-31 04:29:00,29.8,25.3,30.09,WNW,291,0.0,0.0,83,0.00,,---,0.00,VWS V13.01,2013-01-31 10:29:00,
2013-01-31 04:34:00,29.8,25.3,30.09,WNW,291,0.0,0.0,83,0.00,,---,0.00,VWS V13.01,2013-01-31 10:34:00,
2013-01-31 04:39:00,29.7,25.2,30.09,WNW,290,0.0,0.0,83,0.00,,---,0.00,VWS V13.01,2013-01-31 10:39:00,
2013-01-31 04:45:00,29.7,25.2,30.09,WNW,292,0.0,4.0,83,0.00,,---,0.00,VWS V13.01,2013-01-31 10:45:00,
2013-01-31 04:50:00,29.7,25.2,30.09,WNW,292,0.0,4.0,83,0.00,,---,0.00,VWS V13.01,2013-01-31 10:50:00,
2013-01-31 04:55:00,29.7,25.2,30.10,WNW,292,0.0,4.0,83,0.00,,---,0.00,VWS V13.01,2013-01-31 10:55:00,
2013-01-31 05:00:00,29.7,25.5,30.09,WNW,292,0.0,4.0,84,0.00,,---,0.00,VWS V13.01,2013-01-31 11:00:00,
2013-01-31 05:05:00,29.6,25.4,30.09,WNW,292,0.0,4.0,84,0.00,,---,0.00,VWS V13.01,2013-01-31 11:05:00,
2013-01-31 05:10:00,29.6,25.4,30.10,WNW,292,0.0,0.0,84,0.00,,---,0.00,VWS V13.01,2013-01-31 11:10:00,
2013-01-31 05:15:00,29.5,25.3,30.10,WNW,292,0.0,0.0,84,0.00,,---,0.00,VWS V13.01,2013-01-31 11:15:00,
2013-01-31 05:21:00,29.5,25.3,30.10,WNW,292,0.0,0.0,84,0.00,,---,0.00,VWS V13.01,2013-01-31 11:21:00,
2013-01-31 05:26:00,29.5,25.3,30.11,WNW,292,0.0,0.0,84,0.00,,---,0.00,VWS V13.01,2013-01-31 11:26:00,
2013-01-31 05:31:00,29.4,25.2,30.11,WNW,292,0.0,0.0,84,0.00,,---,0.00,VWS V13.01,2013-01-31 11:31:00,
2013-01-31 05:36:00,29.4,25.2,30.11,WNW,292,0.0,0.0,84,0.00,,---,0.00,VWS V13.01,2013-01-31 11:36:00,
2013-01-31 05:41:00,29.3,25.4,30.11,WNW,292,0.0,0.0,85,0.00,,---,0.00,VWS V13.01,2013-01-31 11:41:00,
2013-01-31 05:46:00,29.4,25.5,30.11,WNW,292,0.0,0.0,85,0.00,,---,0.00,VWS V13.01,2013-01-31 11:46:00,
2013-01-31 05:51:00,29.3,25.4,30.11,WNW,292,0.0,0.0,85,0.00,,---,0.00,VWS V13.01,2013-01-31 11:51:00,
2013-01-31 05:56:00,29.3,25.4,30.11,WNW,292,0.0,0.0,85,0.00,,---,0.00,VWS V13.01,2013-01-31 11:56:00,
2013-01-31 06:02:00,29.3,25.4,30.12,WNW,292,0.0,0.0,85,0.00,,---,0.00,VWS V13.01,2013-01-31 12:02:00,
2013-01-31 06:07:00,29.3,25.4,30.12,WNW,292,0.0,0.0,85,0.00,,---,0.00,VWS V13.01,2013-01-31 12:07:00,
2013-01-31 06:12:00,29.2,25.3,30.12,WNW,292,0.0,0.0,85,0.00,,---,0.00,VWS V13.01,2013-01-31 12:12:00,
2013-01-31 06:17:00,29.1,25.2,30.12,WNW,292,0.0,0.0,85,0.00,,---,0.00,VWS V13.01,2013-01-31 12:17:00,
2013-01-31 06:22:00,29.0,25.1,30.13,WNW,292,0.0,0.0,85,0.00,,---,0.00,VWS V13.01,2013-01-31 12:22:00,
2013-01-31 06:27:00,29.0,25.1,30.13,WNW,292,0.0,0.0,85,0.00,,---,0.00,VWS V13.01,2013-01-31 12:27:00,
2013-01-31 06:32:00,28.9,25.0,30.13,WNW,292,0.0,0.0,85,0.00,,---,0.00,VWS V13.01,2013-01-31 12:32:00,
2013-01-31 06:37:00,28.8,24.9,30.13,WNW,292,0.0,0.0,85,0.00,,---,0.00,VWS V13.01,2013-01-31 12:37:00,
2013-01-31 06:42:00,28.8,24.9,30.14,WNW,292,0.0,0.0,85,0.00,,---,0.00,VWS V13.01,2013-01-31 12:42:00,
2013-01-31 06:47:00,28.8,24.9,30.14,WNW,292,0.0,0.0,85,0.00,,---,0.00,VWS V13.01,2013-01-31 12:47:00,
2013-01-31 06:52:00,28.7,24.8,30.14,WNW,292,0.0,0.0,85,0.00,,---,0.00,VWS V13.01,2013-01-31 12:52:00,
2013-01-31 06:57:00,28.6,24.7,30.14,WNW,292,0.0,0.0,85,0.00,,---,0.00,VWS V13.01,2013-01-31 12:57:00,
2013-01-31 07:03:00,28.5,24.6,30.14,WNW,292,0.0,0.0,85,0.00,,---,0.00,VWS V13.01,2013-01-31 13:03:00,
2013-01-31 07:08:00,28.4,24.5,30.14,WNW,292,0.0,0.0,85,0.00,,---,0.00,VWS V13.01,2013-01-31 13:08:00,
2013-01-31 07:13:00,28.3,24.4,30.14,WNW,292,0.0,0.0,85,0.00,,---,0.00,VWS V13.01,2013-01-31 13:13:00,
2013-01-31 07:18:00,28.3,24.4,30.14,WNW,292,0.0,0.0,85,0.00,,---,0.00,VWS V13.01,2013-01-31 13:18:00,
2013-01-31 07:23:00,28.2,24.3,30.14,WNW,292,0.0,0.0,85,0.00,,---,0.00,VWS V13.01,2013-01-31 13:23:00,
2013-01-31 07:28:00,28.1,24.2,30.14,WNW,292,0.0,0.0,85,0.00,,---,0.00,VWS V13.01,2013-01-31 13:28:00,
2013-01-31 07:33:00,28.1,24.2,30.15,WNW,292,0.0,0.0,85,0.00,,---,0.00,VWS V13.01,2013-01-31 13:33:00,
2013-01-31 07:38:00,28.1,24.2,30.15,WNW,292,0.0,0.0,85,0.00,,---,0.00,VWS V13.01,2013-01-31 13:38:00,
2013-01-31 07:43:00,28.1,24.2,30.15,WNW,292,0.0,0.0,85,0.00,,---,0.00,VWS V13.01,2013-01-31 13:43:00,
2013-01-31 07:48:00,28.1,24.2,30.15,WNW,292,0.0,0.0,85,0.00,,---,0.00,VWS V13.01,2013-01-31 13:48:00,
2013-01-31 07:53:00,28.1,24.2,30.15,WNW,292,0.0,0.0,85,0.00,,---,0.00,VWS V13.01,2013-01-31 13:53:00,
2013-01-31 07:58:00,28.2,24.3,30.15,WNW,292,0.0,0.0,85,0.00,,---,0.00,VWS V13.01,2013-01-31 13:58:00,
2013-01-31 08:03:00,28.3,24.4,30.15,WNW,292,0.0,0.0,85,0.00,,---,0.00,VWS V13.01,2013-01-31 14:03:00,
2013-01-31 08:08:00,28.3,24.4,30.15,WNW,292,0.0,0.0,85,0.00,,---,0.00,VWS V13.01,2013-01-31 14:08:00,
2013-01-31 08:14:00,28.4,24.5,30.15,WNW,292,0.0,0.0,85,0.00,,---,0.00,VWS V13.01,2013-01-31 14:14:00,
2013-01-31 08:19:00,28.5,24.6,30.16,WNW,292,0.0,0.0,85,0.00,,---,0.00,VWS V13.01,2013-01-31 14:19:00,
2013-01-31 08:24:00,28.9,25.2,30.16,WNW,292,0.0,0.0,86,0.00,,---,0.00,VWS V13.01,2013-01-31 14:24:00,
2013-01-31 08:29:00,29.3,25.6,30.16,WNW,292,0.0,0.0,86,0.00,,---,0.00,VWS V13.01,2013-01-31 14:29:00,
2013-01-31 08:34:00,30.0,26.3,30.16,WNW,294,2.0,3.0,86,0.00,,---,0.00,VWS V13.01,2013-01-31 14:34:00,
2013-01-31 08:39:00,30.7,27.0,30.16,NNE,32,2.0,6.0,86,0.00,,---,0.00,VWS V13.01,2013-01-31 14:39:00,
2013-01-31 08:44:00,31.3,27.6,30.16,NE,40,2.0,6.0,86,0.00,,---,0.00,VWS V13.01,2013-01-31 14:44:00,
2013-01-31 08:49:00,31.6,27.6,30.16,NE,40,2.0,6.0,85,0.00,,---,0.00,VWS V13.01,2013-01-31 14:49:00,
2013-01-31 08:54:00,31.9,27.9,30.16,NE,40,1.0,6.0,85,0.00,,---,0.00,VWS V13.01,2013-01-31 14:54:00,
2013-01-31 08:59:00,32.0,27.7,30.16,NE,40,0.0,6.0,84,0.00,,---,0.00,VWS V13.01,2013-01-31 14:59:00,
2013-01-31 09:04:00,32.1,27.8,30.17,NE,40,0.0,6.0,84,0.00,,---,0.00,VWS V13.01,2013-01-31 15:04:00,
2013-01-31 09:09:00,32.3,28.0,30.17,NE,40,0.0,0.0,84,0.00,,---,0.00,VWS V13.01,2013-01-31 15:09:00,
2013-01-31 09:15:00,32.6,28.0,30.17,NE,44,0.0,0.0,83,0.00,,---,0.00,VWS V13.01,2013-01-31 15:15:00,
2013-01-31 09:20:00,33.0,28.4,30.16,NE,44,0.0,0.0,83,0.00,,---,0.00,VWS V13.01,2013-01-31 15:20:00,
2013-01-31 09:25:00,33.5,28.6,30.16,NNE,17,0.0,4.0,82,0.00,,---,0.00,VWS V13.01,2013-01-31 15:25:00,
2013-01-31 09:30:00,34.2,29.0,30.16,WSW,254,0.0,5.0,81,0.00,,---,0.00,VWS V13.01,2013-01-31 15:30:00,
2013-01-31 09:35:00,34.8,29.3,30.16,WSW,238,0.0,5.0,80,0.00,,---,0.00,VWS V13.01,2013-01-31 15:35:00,
2013-01-31 09:40:00,35.3,29.1,30.16,WSW,237,0.0,0.0,78,0.00,,---,0.00,VWS V13.01,2013-01-31 15:40:00,
2013-01-31 09:45:00,35.6,29.1,30.16,WSW,237,0.0,0.0,77,0.00,,---,0.00,VWS V13.01,2013-01-31 15:45:00,
2013-01-31 09:50:00,35.9,29.4,30.16,WSW,237,0.0,1.0,77,0.00,,---,0.00,VWS V13.01,2013-01-31 15:50:00,
2013-01-31 09:55:00,36.2,29.7,30.16,WSW,237,0.0,1.0,77,0.00,,---,0.00,VWS V13.01,2013-01-31 15:55:00,
2013-01-31 10:00:00,36.6,29.8,30.16,SE,140,0.0,1.0,76,0.00,,---,0.00,VWS V13.01,2013-01-31 16:00:00,
2013-01-31 10:05:00,37.1,30.2,30.16,East,99,0.0,4.0,76,0.00,,---,0.00,VWS V13.01,2013-01-31 16:05:00,
2013-01-31 10:10:00,37.5,30.3,30.16,ESE,118,1.0,5.0,75,0.00,,---,0.00,VWS V13.01,2013-01-31 16:10:00,
2013-01-31 10:15:00,37.9,30.7,30.16,SE,130,0.0,6.0,75,0.00,,---,0.00,VWS V13.01,2013-01-31 16:15:00,
2013-01-31 10:20:00,38.2,31.0,30.16,NE,47,2.0,6.0,75,0.00,,---,0.00,VWS V13.01,2013-01-31 16:20:00,
2013-01-31 10:25:00,38.6,30.7,30.16,East,83,0.0,6.0,73,0.00,,---,0.00,VWS V13.01,2013-01-31 16:25:00,
2013-01-31 10:31:00,38.8,30.9,30.16,NE,53,0.0,6.0,73,0.00,,---,0.00,VWS V13.01,2013-01-31 16:31:00,
2013-01-31 10:36:00,39.1,31.2,30.16,NE,50,2.0,3.0,73,0.00,,---,0.00,VWS V13.01,2013-01-31 16:36:00,
2013-01-31 10:41:00,39.4,31.1,30.17,NE,42,3.0,5.0,72,0.00,,---,0.00,VWS V13.01,2013-01-31 16:41:00,
2013-01-31 10:46:00,39.8,31.5,30.17,NNE,26,2.0,6.0,72,0.00,,---,0.00,VWS V13.01,2013-01-31 16:46:00,
2013-01-31 10:51:00,40.1,31.5,30.17,NNE,26,0.0,6.0,71,0.00,,---,0.00,VWS V13.01,2013-01-31 16:51:00,
2013-01-31 10:56:00,40.4,31.8,30.17,NE,37,1.0,6.0,71,0.00,,---,0.00,VWS V13.01,2013-01-31 16:56:00,
2013-01-31 11:01:00,40.8,32.1,30.16,NE,36,1.0,6.0,71,0.00,,---,0.00,VWS V13.01,2013-01-31 17:01:00,
2013-01-31 11:06:00,41.1,32.4,30.16,NE,34,0.0,0.0,71,0.00,,---,0.00,VWS V13.01,2013-01-31 17:06:00,
2013-01-31 11:11:00,41.4,32.0,30.16,NE,40,5.0,6.0,69,0.00,,---,0.00,VWS V13.01,2013-01-31 17:11:00,
2013-01-31 11:16:00,41.8,32.8,30.16,NE,55,0.0,6.0,70,0.00,,---,0.00,VWS V13.01,2013-01-31 17:16:00,
2013-01-31 11:21:00,42.7,33.2,30.16,NE,46,0.0,6.0,69,0.00,,---,0.00,VWS V13.01,2013-01-31 17:21:00,
2013-01-31 11:26:00,43.7,32.7,30.16,NE,43,3.0,6.0,65,0.00,,---,0.00,VWS V13.01,2013-01-31 17:26:00,
2013-01-31 11:31:00,44.2,32.0,30.16,North,5,0.0,6.0,62,0.00,,---,0.00,VWS V13.01,2013-01-31 17:31:00,
2013-01-31 11:36:00,44.4,31.8,30.16,NNW,335,1.0,1.0,61,0.00,,---,0.00,VWS V13.01,2013-01-31 17:36:00,
2013-01-31 11:41:00,44.5,31.9,30.16,NNW,333,2.0,3.0,61,0.00,,---,0.00,VWS V13.01,2013-01-31 17:41:00,
2013-01-31 11:46:00,45.1,32.1,30.16,NW,317,3.0,5.0,60,0.00,,---,0.00,VWS V13.01,2013-01-31 17:46:00,
2013-01-31 11:51:00,45.3,32.2,30.16,WNW,302,0.0,5.0,60,0.00,,---,0.00,VWS V13.01,2013-01-31 17:51:00,
2013-01-31 11:56:00,45.7,32.6,30.16,North,349,0.0,6.0,60,0.00,,---,0.00,VWS V13.01,2013-01-31 17:56:00,
2013-01-31 12:01:00,46.0,32.9,30.16,North,350,0.0,6.0,60,0.00,,---,0.00,VWS V13.01,2013-01-31 18:01:00,
2013-01-31 12:06:00,46.3,33.6,30.15,NNW,331,0.0,2.0,61,0.00,,---,0.00,VWS V13.01,2013-01-31 18:06:00,
2013-01-31 12:11:00,46.4,33.7,30.15,NW,309,0.0,6.0,61,0.00,,---,0.00,VWS V13.01,2013-01-31 18:11:00,
2013-01-31 12:17:00,46.9,34.6,30.15,NNW,347,0.0,6.0,62,0.00,,---,0.00,VWS V13.01,2013-01-31 18:17:00,
2013-01-31 12:22:00,46.0,33.7,30.15,NW,304,1.0,6.0,62,0.00,,---,0.00,VWS V13.01,2013-01-31 18:22:00,
2013-01-31 12:27:00,46.8,35.3,30.14,West,264,0.0,6.0,64,0.00,,---,0.00,VWS V13.01,2013-01-31 18:27:00,
2013-01-31 12:32:00,47.1,34.8,30.14,West,273,0.0,6.0,62,0.00,,---,0.00,VWS V13.01,2013-01-31 18:32:00,
2013-01-31 12:37:00,47.5,35.1,30.14,NNW,330,3.0,4.0,62,0.00,,---,0.00,VWS V13.01,2013-01-31 18:37:00,
2013-01-31 12:42:00,48.0,34.4,30.13,NNW,340,2.0,7.0,59,0.00,,---,0.00,VWS V13.01,2013-01-31 18:42:00,
2013-01-31 12:47:00,48.1,34.0,30.12,NW,310,0.0,7.0,58,0.00,,---,0.00,VWS V13.01,2013-01-31 18:47:00,
2013-01-31 12:52:00,48.2,33.3,30.12,WSW,240,0.0,7.0,56,0.00,,---,0.00,VWS V13.01,2013-01-31 18:52:00,
2013-01-31 12:57:00,48.7,34.2,30.12,WNW,296,2.0,7.0,57,0.00,,---,0.00,VWS V13.01,2013-01-31 18:57:00,
2013-01-31 13:02:00,49.4,35.3,30.12,NNW,342,4.0,7.0,58,0.00,,---,0.00,VWS V13.01,2013-01-31 19:02:00,
2013-01-31 13:07:00,49.8,33.8,30.12,NW,311,0.0,9.0,54,0.00,,---,0.00,VWS V13.01,2013-01-31 19:07:00,
2013-01-31 13:12:00,50.0,34.0,30.11,NNW,328,4.0,9.0,54,0.00,,---,0.00,VWS V13.01,2013-01-31 19:12:00,
2013-01-31 13:17:00,50.1,33.7,30.11,WNW,300,2.0,10.0,53,0.00,,---,0.00,VWS V13.01,2013-01-31 19:17:00,
2013-01-31 13:22:00,50.6,33.6,30.10,NW,306,0.0,10.0,52,0.00,,---,0.00,VWS V13.01,2013-01-31 19:22:00,
2013-01-31 13:27:00,50.6,33.2,30.10,WNW,286,1.0,10.0,51,0.00,,---,0.00,VWS V13.01,2013-01-31 19:27:00,
2013-01-31 13:32:00,50.8,32.8,30.10,NW,321,2.0,10.0,50,0.00,,---,0.00,VWS V13.01,2013-01-31 19:32:00,
2013-01-31 13:38:00,50.8,33.8,30.10,WNW,302,0.0,5.0,52,0.00,,---,0.00,VWS V13.01,2013-01-31 19:38:00,
2013-01-31 13:43:00,51.8,34.8,30.10,NW,314,2.0,5.0,52,0.00,,---,0.00,VWS V13.01,2013-01-31 19:43:00,
2013-01-31 13:48:00,51.9,35.8,30.09,NW,309,1.0,5.0,54,0.00,,---,0.00,VWS V13.01,2013-01-31 19:48:00,
2013-01-31 13:53:00,52.7,36.1,30.09,WNW,300,0.0,5.0,53,0.00,,---,0.00,VWS V13.01,2013-01-31 19:53:00,
2013-01-31 13:58:00,52.5,35.4,30.09,NW,308,2.0,5.0,52,0.00,,---,0.00,VWS V13.01,2013-01-31 19:58:00,
2013-01-31 14:03:00,52.3,34.2,30.09,NNW,340,0.0,5.0,50,0.00,,---,0.00,VWS V13.01,2013-01-31 20:03:00,
2013-01-31 14:08:00,52.4,34.8,30.09,NNW,337,1.0,4.0,51,0.00,,---,0.00,VWS V13.01,2013-01-31 20:08:00,
2013-01-31 14:13:00,52.7,34.6,30.09,NW,321,0.0,7.0,50,0.00,,---,0.00,VWS V13.01,2013-01-31 20:13:00,
2013-01-31 14:18:00,52.9,34.8,30.09,NNW,345,1.0,7.0,50,0.00,,---,0.00,VWS V13.01,2013-01-31 20:18:00,
2013-01-31 14:23:00,52.8,33.7,30.09,NNW,344,2.0,9.0,48,0.00,,---,0.00,VWS V13.01,2013-01-31 20:23:00,
2013-01-31 14:29:00,53.2,33.5,30.09,NNW,346,1.0,9.0,47,0.00,,---,0.00,VWS V13.01,2013-01-31 20:29:00,
2013-01-31 14:34:00,54.1,33.8,30.09,NNW,341,2.0,9.0,46,0.00,,---,0.00,VWS V13.01,2013-01-31 20:34:00,
2013-01-31 14:39:00,54.2,33.9,30.09,WNW,296,1.0,9.0,46,0.00,,---,0.00,VWS V13.01,2013-01-31 20:39:00,
2013-01-31 14:44:00,54.1,33.2,30.09,NW,305,5.0,10.0,45,0.00,,---,0.00,VWS V13.01,2013-01-31 20:44:00,
2013-01-31 14:49:00,54.0,33.2,30.09,NNW,338,2.0,11.0,45,0.00,,---,0.00,VWS V13.01,2013-01-31 20:49:00,
2013-01-31 14:54:00,53.9,33.1,30.09,NNW,333,1.0,11.0,45,0.00,,---,0.00,VWS V13.01,2013-01-31 20:54:00,
2013-01-31 14:59:00,54.0,34.2,30.09,NW,306,4.0,11.0,47,0.00,,---,0.00,VWS V13.01,2013-01-31 20:59:00,
2013-01-31 15:04:00,53.9,33.6,30.09,NW,314,4.0,11.0,46,0.00,,---,0.00,VWS V13.01,2013-01-31 21:04:00,
2013-01-31 15:10:00,53.8,33.0,30.09,NNW,341,2.0,9.0,45,0.00,,---,0.00,VWS V13.01,2013-01-31 21:10:00,
2013-01-31 15:15:00,53.5,32.7,30.09,NNW,344,4.0,11.0,45,0.00,,---,0.00,VWS V13.01,2013-01-31 21:15:00,
2013-01-31 15:20:00,53.4,32.6,30.09,WNW,303,0.0,12.0,45,0.00,,---,0.00,VWS V13.01,2013-01-31 21:20:00,
2013-01-31 15:25:00,53.6,33.3,30.09,NW,306,0.0,12.0,46,0.00,,---,0.00,VWS V13.01,2013-01-31 21:25:00,
2013-01-31 15:30:00,53.7,32.3,30.09,WNW,299,3.0,12.0,44,0.00,,---,0.00,VWS V13.01,2013-01-31 21:30:00,
2013-01-31 15:35:00,53.4,32.0,30.10,NW,312,0.0,13.0,44,0.00,,---,0.00,VWS V13.01,2013-01-31 21:35:00,
2013-01-31 15:40:00,53.4,31.5,30.10,NNW,341,2.0,14.0,43,0.00,,---,0.00,VWS V13.01,2013-01-31 21:40:00,
2013-01-31 15:45:00,53.6,32.8,30.10,NNW,344,1.0,14.0,45,0.00,,---,0.00,VWS V13.01,2013-01-31 21:45:00,
2013-01-31 15:50:00,53.7,31.2,30.09,North,9,1.0,14.0,42,0.00,,---,0.00,VWS V13.01,2013-01-31 21:50:00,
2013-01-31 15:55:00,53.6,31.7,30.09,WNW,303,4.0,14.0,43,0.00,,---,0.00,VWS V13.01,2013-01-31 21:55:00,
2013-01-31 16:00:00,53.7,32.3,30.09,NNW,333,2.0,14.0,44,0.00,,---,0.00,VWS V13.01,2013-01-31 22:00:00,
2013-01-31 16:05:00,53.9,32.5,30.09,NW,325,0.0,14.0,44,0.00,,---,0.00,VWS V13.01,2013-01-31 22:05:00,
2013-01-31 16:10:00,53.9,31.4,30.09,WNW,287,9.0,13.0,42,0.00,,---,0.00,VWS V13.01,2013-01-31 22:10:00,
2013-01-31 16:15:00,53.9,31.9,30.09,NW,319,0.0,13.0,43,0.00,,---,0.00,VWS V13.01,2013-01-31 22:15:00,
2013-01-31 16:21:00,54.0,32.0,30.10,NW,317,1.0,13.0,43,0.00,,---,0.00,VWS V13.01,2013-01-31 22:21:00,
2013-01-31 16:25:00,54.2,31.6,30.10,NNW,336,2.0,13.0,42,0.00,,---,0.00,VWS V13.01,2013-01-31 22:25:00,
2013-01-31 16:30:00,54.3,31.1,30.10,NNW,331,2.0,13.0,41,0.00,,---,0.00,VWS V13.01,2013-01-31 22:30:00,
2013-01-31 16:35:00,54.2,31.0,30.10,NW,304,4.0,5.0,41,0.00,,---,0.00,VWS V13.01,2013-01-31 22:35:00,
2013-01-31 16:41:00,54.2,29.8,30.10,WNW,288,4.0,6.0,39,0.00,,---,0.00,VWS V13.01,2013-01-31 22:41:00,
2013-01-31 16:46:00,54.1,30.9,30.10,WNW,298,0.0,6.0,41,0.00,,---,0.00,VWS V13.01,2013-01-31 22:46:00,
2013-01-31 16:51:00,53.9,30.8,30.11,NNW,327,0.0,7.0,41,0.00,,---,0.00,VWS V13.01,2013-01-31 22:51:00,
2013-01-31 16:56:00,53.9,30.8,30.11,NW,322,0.0,11.0,41,0.00,,---,0.00,VWS V13.01,2013-01-31 22:56:00,
2013-01-31 17:01:00,53.9,30.8,30.11,NNW,336,0.0,11.0,41,0.00,,---,0.00,VWS V13.01,2013-01-31 23:01:00,
2013-01-31 17:06:00,54.0,31.5,30.11,NW,313,0.0,0.0,42,0.00,,---,0.00,VWS V13.01,2013-01-31 23:06:00,
2013-01-31 17:11:00,53.8,31.9,30.12,NW,311,2.0,3.0,43,0.00,,---,0.00,VWS V13.01,2013-01-31 23:11:00,
2013-01-31 17:16:00,53.6,31.7,30.12,WNW,294,0.0,3.0,43,0.00,,---,0.00,VWS V13.01,2013-01-31 23:16:00,
2013-01-31 17:22:00,53.4,31.5,30.12,NNW,333,1.0,13.0,43,0.00,,---,0.00,VWS V13.01,2013-01-31 23:22:00,
2013-01-31 17:27:00,53.2,31.9,30.12,NW,310,1.0,13.0,44,0.00,,---,0.00,VWS V13.01,2013-01-31 23:27:00,
2013-01-31 17:32:00,52.8,32.1,30.13,North,355,12.0,15.0,45,0.00,,---,0.00,VWS V13.01,2013-01-31 23:32:00,
2013-01-31 17:37:00,52.2,31.0,30.14,North,350,0.0,9.0,44,0.00,,---,0.00,VWS V13.01,2013-01-31 23:37:00,
2013-01-31 17:42:00,51.4,30.8,30.15,NE,42,3.0,10.0,45,0.00,,---,0.00,VWS V13.01,2013-01-31 23:42:00,
2013-01-31 17:47:00,50.8,30.8,30.15,NNW,348,3.0,13.0,46,0.00,,---,0.00,VWS V13.01,2013-01-31 23:47:00,
2013-01-31 17:52:00,50.5,31.0,30.16,NNW,337,6.0,13.0,47,0.00,,---,0.00,VWS V13.01,2013-01-31 23:52:00,
2013-01-31 17:57:00,50.3,31.4,30.17,NNW,343,3.0,13.0,48,0.00,,---,0.00,VWS V13.01,2013-01-31 23:57:00,
2013-01-31 18:02:00,50.1,31.2,30.18,NW,323,7.0,13.0,48,0.00,,---,0.00,VWS V13.01,2013-02-01 00:02:00,
2013-01-31 18:07:00,49.8,31.4,30.18,NW,326,4.0,10.0,49,0.00,,---,0.00,VWS V13.01,2013-02-01 00:07:00,
2013-01-31 18:13:00,49.6,31.2,30.18,NNW,342,2.0,10.0,49,0.00,,---,0.00,VWS V13.01,2013-02-01 00:13:00,
2013-01-31 18:18:00,49.3,31.5,30.18,NNW,337,0.0,10.0,50,0.00,,---,0.00,VWS V13.01,2013-02-01 00:18:00,
2013-01-31 18:23:00,49.1,31.8,30.19,NNW,330,3.0,10.0,51,0.00,,---,0.00,VWS V13.01,2013-02-01 00:23:00,
2013-01-31 18:28:00,48.8,31.0,30.19,NNW,331,0.0,10.0,50,0.00,,---,0.00,VWS V13.01,2013-02-01 00:28:00,
2013-01-31 18:33:00,48.5,31.2,30.20,NW,321,0.0,10.0,51,0.00,,---,0.00,VWS V13.01,2013-02-01 00:33:00,
2013-01-31 18:38:00,48.2,30.9,30.20,NNW,346,1.0,6.0,51,0.00,,---,0.00,VWS V13.01,2013-02-01 00:38:00,
2013-01-31 18:43:00,48.0,30.8,30.21,NNW,343,5.0,7.0,51,0.00,,---,0.00,VWS V13.01,2013-02-01 00:43:00,
2013-01-31 18:48:00,47.7,31.0,30.22,North,355,0.0,7.0,52,0.00,,---,0.00,VWS V13.01,2013-02-01 00:48:00,
2013-01-31 18:53:00,47.4,31.1,30.22,North,9,2.0,10.0,53,0.00,,---,0.00,VWS V13.01,2013-02-01 00:53:00,
2013-01-31 18:58:00,47.2,30.5,30.23,NNE,13,0.0,10.0,52,0.00,,---,0.00,VWS V13.01,2013-02-01 00:58:00,
2013-01-31 19:03:00,46.9,30.7,30.24,North,355,0.0,10.0,53,0.00,,---,0.00,VWS V13.01,2013-02-01 01:03:00,
2013-01-31 19:08:00,46.7,30.5,30.24,NNW,338,0.0,6.0,53,0.00,,---,0.00,VWS V13.01,2013-02-01 01:08:00,
2013-01-31 19:14:00,46.5,30.8,30.24,NNW,348,0.0,6.0,54,0.00,,---,0.00,VWS V13.01,2013-02-01 01:14:00,
2013-01-31 19:19:00,46.3,31.0,30.25,North,355,0.0,9.0,55,0.00,,---,0.00,VWS V13.01,2013-02-01 01:19:00,
2013-01-31 19:24:00,46.0,31.2,30.25,North,360,6.0,12.0,56,0.00,,---,0.00,VWS V13.01,2013-02-01 01:24:00,
2013-01-31 19:29:00,45.7,30.9,30.26,NNW,345,7.0,12.0,56,0.00,,---,0.00,VWS V13.01,2013-02-01 01:29:00,
2013-01-31 19:34:00,45.5,31.2,30.27,NNE,30,8.0,12.0,57,0.00,,---,0.00,VWS V13.01,2013-02-01 01:34:00,
2013-01-31 19:39:00,45.3,31.0,30.27,NNW,348,2.0,10.0,57,0.00,,---,0.00,VWS V13.01,2013-02-01 01:39:00,
2013-01-31 19:44:00,45.0,30.7,30.28,North,360,7.0,12.0,57,0.00,,---,0.00,VWS V13.01,2013-02-01 01:44:00,
2013-01-31 19:49:00,44.8,30.5,30.28,North,360,3.0,12.0,57,0.00,,---,0.00,VWS V13.01,2013-02-01 01:49:00,
2013-01-31 19:54:00,44.5,30.7,30.28,NNW,338,4.0,12.0,58,0.00,,---,0.00,VWS V13.01,2013-02-01 01:54:00,
2013-01-31 19:59:00,44.1,30.3,30.29,North,10,2.0,12.0,58,0.00,,---,0.00,VWS V13.01,2013-02-01 01:59:00,
2013-01-31 20:04:00,43.4,29.6,30.30,NNW,346,2.0,12.0,58,0.00,,---,0.00,VWS V13.01,2013-02-01 02:04:00,
2013-01-31 20:09:00,42.8,29.1,30.30,North,355,1.0,10.0,58,0.00,,---,0.00,VWS V13.01,2013-02-01 02:09:00,
2013-01-31 20:14:00,42.4,29.1,30.30,NNW,341,4.0,11.0,59,0.00,,---,0.00,VWS V13.01,2013-02-01 02:14:00,
2013-01-31 20:19:00,41.9,28.6,30.31,NNW,339,3.0,11.0,59,0.00,,---,0.00,VWS V13.01,2013-02-01 02:19:00,
2013-01-31 20:25:00,41.6,28.4,30.31,NNE,16,4.0,11.0,59,0.00,,---,0.00,VWS V13.01,2013-02-01 02:25:00,
2013-01-31 20:30:00,41.2,27.6,30.32,NNW,341,0.0,11.0,58,0.00,,---,0.00,VWS V13.01,2013-02-01 02:30:00,
2013-01-31 20:35:00,40.9,27.7,30.32,North,360,0.0,12.0,59,0.00,,---,0.00,VWS V13.01,2013-02-01 02:35:00,
2013-01-31 20:40:00,40.6,27.0,30.32,NNW,346,0.0,6.0,58,0.00,,---,0.00,VWS V13.01,2013-02-01 02:40:00,
2013-01-31 20:45:00,40.4,26.8,30.33,NNW,346,7.0,12.0,58,0.00,,---,0.00,VWS V13.01,2013-02-01 02:45:00,
2013-01-31 20:50:00,40.1,26.5,30.33,NNW,348,0.0,12.0,58,0.00,,---,0.00,VWS V13.01,2013-02-01 02:50:00,
2013-01-31 20:55:00,39.9,26.3,30.33,NNW,347,4.0,12.0,58,0.00,,---,0.00,VWS V13.01,2013-02-01 02:55:00,
2013-01-31 21:00:00,39.6,26.1,30.33,NNW,346,3.0,12.0,58,0.00,,---,0.00,VWS V13.01,2013-02-01 03:00:00,
2013-01-31 21:05:00,39.3,25.8,30.34,NNW,344,6.0,12.0,58,0.00,,---,0.00,VWS V13.01,2013-02-01 03:05:00,
2013-01-31 21:10:00,39.1,25.2,30.34,NNW,341,5.0,7.0,57,0.00,,---,0.00,VWS V13.01,2013-02-01 03:10:00,
2013-01-31 21:15:00,38.7,23.9,30.35,North,9,2.0,11.0,55,0.00,,---,0.00,VWS V13.01,2013-02-01 03:15:00,
2013-01-31 21:20:00,38.4,23.7,30.35,North,355,5.0,11.0,55,0.00,,---,0.00,VWS V13.01,2013-02-01 03:20:00,
2013-01-31 21:25:00,38.1,22.9,30.35,NNW,346,1.0,11.0,54,0.00,,---,0.00,VWS V13.01,2013-02-01 03:25:00,
2013-01-31 21:30:00,37.8,22.2,30.36,NNW,345,3.0,11.0,53,0.00,,---,0.00,VWS V13.01,2013-02-01 03:30:00,
2013-01-31 21:35:00,37.6,22.0,30.37,North,355,0.0,1.0,53,0.00,,---,0.00,VWS V13.01,2013-02-01 03:35:00,
2013-01-31 21:41:00,37.4,21.9,30.37,NNW,342,0.0,7.0,53,0.00,,---,0.00,VWS V13.01,2013-02-01 03:41:00,
2013-01-31 21:46:00,37.2,21.7,30.37,NNW,347,2.0,7.0,53,0.00,,---,0.00,VWS V13.01,2013-02-01 03:46:00,
2013-01-31 21:51:00,36.9,20.9,30.37,NE,35,0.0,7.0,52,0.00,,---,0.00,VWS V13.01,2013-02-01 03:51:00,
2013-01-31 21:56:00,36.7,20.3,30.38,NNW,332,4.0,7.0,51,0.00,,---,0.00,VWS V13.01,2013-02-01 03:56:00,
2013-01-31 22:01:00,36.4,19.1,30.38,NNW,348,2.0,7.0,49,0.00,,---,0.00,VWS V13.01,2013-02-01 04:01:00,
2013-01-31 22:06:00,36.1,17.8,30.38,North,9,0.0,2.0,47,0.00,,---,0.00,VWS V13.01,2013-02-01 04:06:00,
2013-01-31 22:11:00,35.8,17.6,30.39,NNW,346,4.0,5.0,47,0.00,,---,0.00,VWS V13.01,2013-02-01 04:11:00,
2013-01-31 22:16:00,35.5,16.8,30.39,North,360,8.0,10.0,46,0.00,,---,0.00,VWS V13.01,2013-02-01 04:16:00,
2013-01-31 22:21:00,35.2,18.0,30.39,NNW,346,3.0,10.0,49,0.00,,---,0.00,VWS V13.01,2013-02-01 04:21:00,
2013-01-31 22:26:00,34.7,15.6,30.39,North,5,4.0,10.0,45,0.00,,---,0.00,VWS V13.01,2013-02-01 04:26:00,
2013-01-31 22:31:00,34.4,14.8,30.39,North,351,3.0,10.0,44,0.00,,---,0.00,VWS V13.01,2013-02-01 04:31:00,
2013-01-31 22:36:00,34.1,14.0,30.39,North,5,4.0,7.0,43,0.00,,---,0.00,VWS V13.01,2013-02-01 04:36:00,
2013-01-31 22:41:00,33.7,13.6,30.40,NE,42,0.0,10.0,43,0.00,,---,0.00,VWS V13.01,2013-02-01 04:41:00,
2013-01-31 22:46:00,33.5,13.4,30.40,NNW,341,6.0,10.0,43,0.00,,---,0.00,VWS V13.01,2013-02-01 04:46:00,
2013-01-31 22:51:00,33.2,12.6,30.40,NNW,340,3.0,10.0,42,0.00,,---,0.00,VWS V13.01,2013-02-01 04:51:00,
2013-01-31 22:56:00,32.9,11.8,30.40,NNW,340,5.0,12.0,41,0.00,,---,0.00,VWS V13.01,2013-02-01 04:56:00,
2013-01-31 23:00:00,32.8,11.7,30.41,North,355,5.0,12.0,41,0.00,,---,0.00,VWS V13.01,2013-02-01 05:00:00,
2013-01-31 23:01:00,32.7,11.6,30.41,NNW,344,0.0,12.0,41,0.00,,---,0.00,VWS V13.01,2013-02-01 05:01:00,
2013-01-31 23:03:00,32.6,11.5,30.41,North,350,2.0,12.0,41,0.00,,---,0.00,VWS V13.01,2013-02-01 05:03:00,
2013-01-31 23:08:00,32.4,11.9,30.41,NNE,16,3.0,10.0,42,0.00,,---,0.00,VWS V13.01,2013-02-01 05:08:00,
2013-01-31 23:13:00,32.1,11.6,30.41,North,350,5.0,12.0,42,0.00,,---,0.00,VWS V13.01,2013-02-01 05:13:00,
2013-01-31 23:18:00,31.8,11.3,30.41,NW,321,6.0,12.0,42,0.00,,---,0.00,VWS V13.01,2013-02-01 05:18:00,
2013-01-31 23:23:00,31.6,12.2,30.41,NNE,22,2.0,12.0,44,0.00,,---,0.00,VWS V13.01,2013-02-01 05:23:00,
2013-01-31 23:28:00,31.4,12.5,30.41,North,355,2.0,12.0,45,0.00,,---,0.00,VWS V13.01,2013-02-01 05:28:00,
2013-01-31 23:33:00,31.2,12.4,30.41,North,355,4.0,12.0,45,0.00,,---,0.00,VWS V13.01,2013-02-01 05:33:00,
2013-01-31 23:38:00,31.0,12.2,30.41,NNW,344,3.0,8.0,45,0.00,,---,0.00,VWS V13.01,2013-02-01 05:38:00,
2013-01-31 23:43:00,30.9,12.6,30.41,NNW,341,0.0,8.0,46,0.00,,---,0.00,VWS V13.01,2013-02-01 05:43:00,
2013-01-31 23:48:00,30.7,12.4,30.41,NNW,344,1.0,8.0,46,0.00,,---,0.00,VWS V13.01,2013-02-01 05:48:00,
2013-01-31 23:53:00,30.5,12.7,30.41,NNW,340,5.0,8.0,47,0.00,,---,0.00,VWS V13.01,2013-02-01 05:53:00,
2013-01-31 23:58:00,30.3,13.0,30.41,NNW,348,0.0,8.0,48,0.00,,---,0.00,VWS V13.01,2013-02-01 05:58:00,